This demonstration page uses our WeatherBlox Daily Observations layout. Learn more.

Left ArrowRight Arrow

53.62937, 11.41316

Hourly Observations for October 31, 2015

Temp ( °F °C ) Dew Point ( °F °C ) Humidity (%) Winds ( mph kmh ) Pressure ( in mb ) Visibility ( mi km ) Precip ( " mm )
5:20 am 05:20 Cloudy with Mist and Fog 46 8 45 7 93 93 E 7 11 30.45 1031 2 3 N/A
5:50 am 05:50 Cloudy with Mist and Fog 46 8 45 7 93 93 E 7 11 30.45 1031 2 3 N/A
6:20 am 06:20 Cloudy with Mist and Fog 46 8 45 7 93 93 E 7 11 30.45 1031 2 3 N/A
6:50 am 06:50 Cloudy with Mist and Fog 46 8 45 7 93 93 E 7 11 30.45 1031 2 3 N/A
7:20 am 07:20 Cloudy with Mist and Fog 46 8 45 7 93 93 E 8 13 30.48 1032 2 3 N/A
7:50 am 07:50 Mostly Cloudy with Mist and Fog 46 8 45 7 93 93 E 7 11 30.48 1032 2 4 N/A
8:20 am 08:20 Mostly Cloudy with Mist and Fog 46 8 45 7 93 93 E 7 11 30.48 1032 2 3 N/A
8:50 am 08:50 Partly Cloudy with Mist and Fog 48 9 45 7 87 87 E 7 11 30.48 1032 3 4 N/A
9:20 am 09:20 Partly Cloudy with Mist and Fog 48 9 45 7 87 87 E 9 15 30.48 1032 3 5 N/A
9:50 am 09:50 Mostly Cloudy with Mist and Fog 50 10 45 7 82 82 E 9 15 30.48 1032 3 5 N/A
10:20 am 10:20 Partly Cloudy with Mist and Fog 50 10 46 8 88 88 E 8 13 30.48 1032 3 5 N/A
10:50 am 10:50 Partly Cloudy 52 11 46 8 82 82 SE 13 20 30.48 1032 4 7 N/A
11:20 am 11:20 Partly Cloudy 52 11 45 7 77 77 SE 10 17 30.48 1032 4 7 N/A
11:50 am 11:50 Mostly Sunny 52 11 46 8 82 82 ESE 10 17 30.45 1031 4 7 N/A
12:20 pm 12:20 Mostly Sunny 54 12 46 8 77 77 ESE 9 15 30.45 1031 4 7 N/A
12:50 pm 12:50 Mostly Sunny 54 12 46 8 77 77 ESE 9 15 30.45 1031 4 7 N/A
1:20 pm 13:20 Mostly Sunny 55 13 46 8 72 72 ESE 12 19 30.42 1030 5 8 N/A
1:50 pm 13:50 Mostly Sunny 55 13 46 8 72 72 SE 7 11 30.42 1030 5 8 N/A
2:20 pm 14:20 Mostly Sunny 55 13 46 8 72 72 SE 8 13 30.42 1030 5 8 N/A
2:50 pm 14:50 Mostly Sunny 55 13 46 8 72 72 SE 8 13 30.42 1030 5 8 N/A
3:20 pm 15:20 Mostly Sunny 55 13 46 8 72 72 SE 5 7 30.42 1030 5 8 N/A
3:50 pm 15:50 Mostly Sunny 54 12 46 8 77 77 ESE 6 9 30.39 1029 6 9 N/A
4:20 pm 16:20 Mostly Sunny 54 12 46 8 77 77 E 6 9 30.42 1030 5 8 N/A
4:50 pm 16:50 Mostly Clear 50 10 46 8 88 88 E 6 9 30.42 1030 4 7 N/A
5:20 pm 17:20 Mostly Clear 48 9 46 8 94 94 E 6 9 30.42 1030 4 6 N/A
5:50 pm 17:50 Mostly Clear 45 7 43 6 93 93 NE 6 9 30.42 1030 4 6 N/A

Powered by AerisWeather